SCP
0 0 0 0 0 -0 -0 0 0 0 0 0 0 0 0 -0 0 0 0 0 0 0 0 0 0 0 0 0 0 0 0 0 0 0 0 0 0 0 0 0 0 0 0
0 0 0 0 0 0 0 -0 0 0 0 0 0 0 0 0 0 0 0 0 0 -0 0 0 -0 0 0 0 0 0 0 0 0 0 0 0 0 0 0 0 0 0 0
0 0 0 0 0 0 0 0 0 0 0 0 0 0 -0 0 0 0 0 0 0 0 0 0 0 0 0 0 0 0 0 0 0 0 0 0 0 0 0 0 0 0 0
0 0 0 0 0 0 0 0 0 0 0 0 0 0 0 0 0 0 0 0 0 0 0 0 -0 0 -0 0 0 0 0 0 0 0 0 0 0 0 0 0 0 0 0
0 0 0 0 0 0 0 0 0 0 0 0 0 0 0 0 0 0 0 0 0 0 0 0 -0 -0 0 0 0 0 0 0 0 0 0 0 0 0 0 0 0 0 0
0 0 0 0 0 0 0 0 0 0 0 0 0 0 0 0 0 0 0 0 0 0 -0 -0 -0 -0 -0 0 0 0 0 0 0 0 0 0 0 0 0 0 0 0 0
0 0 0 0 0 -0 0 0 0 0 0 0 0 0 0 0 0 0 0 0 0 0 -0 -0 0 0 0 0 0 0 0 0 0 0 0 0 0 0 0 0 0 0 0
0 0 0 -0 0 -0 -0 -0 0 0 0 0 0 0 0 0 0 0 0 0 0 0 0 0 0 0 0 0 0 0 0 0 0 0 0 0 0 0 0 0 0 0 0
0 0 0 0 -0 0 0 0 0 0 0 0 0 0 0 0 0 0 0 0 0 0 0 0 0 0 0 0 0 0 0 0 0 0 0 0 0 0 0 0 0 0 0
0 0 0 0 0 0 0 0 0 0 0 0 0 0 0 0 0 0 0 0 0 0 0 0 0 0 0 0 0 0 0 0 0 0 0 0 0 0 0 0 0 0 0
0 0 0 0 0 0 -0 0 0 0 0 0 0 0 0 0 0 0 0 0 0 0 0 0 0 0 0 0 0 0 0 0 0 0 0 0 0 0 0 0 0 0 0
0 0 0 0 0 0 0 0 0 0 0 0 0 0 0 0 0 0 0 0 0 0 0 0 0 0 0 0 0 0 0 0 0 0 0 0 0 0 0 0 0 0 0
0 0 0 0 0 0 0 0 0 0 0 0 0 0 0 0 0 0 0 0 0 0 0 0 0 0 0 0 0 0 0 0 0 0 0 0 0 0 0 0 0 0 0
0 0 0 0 0 0 0 0 0 0 0 0 0 0 0 0 0 0 0 0 0 0 0 0 0 0 0 0 0 0 0 0 0 0 0 0 0 0 0 0 0 0 0
0 0 0 0 0 0 0 0 0 0 0 0 0 0 0 0 0 0 0 0 0 0 0 0 0 0 0 0 0 0 0 0 0 0 0 0 0 0 0 0 0 0 0
0 0 0 0 0 0 0 0 0 0 0 0 0 0 0 0 0 0 0 0 0 0 0 0 0 0 0 0 0 0 0 0 0 0 0 0 0 0 0 0 0 0 0
0 0 0 0 0 0 0 0 0 0 0 0 0 0 0 0 0 0 0 0 0 0 0 0 0 0 0 0 0 0 0 0 0 0 0 0 -0 -0 0 0 0 0 0
0 0 0 0 0 0 0 0 0 0 0 0 0 0 0 0 0 0 0 0 0 0 0 0 0 0 0 0 0 0 0 0 0 0 0 -0 -0 0 0 0 0 0 0
0 0 0 0 0 0 0 0 0 0 0 0 0 0 0 0 0 0 0 0 0 0 0 0 0 0 0 0 0 0 0 0 0 0 0 0 0 0 0 0 0 0 0
0 0 0 0 0 0 0 0 0 0 0 0 0 0 0 0 0 0 0 0 0 0 0 0 0 0 0 0 0 0 0 0 0 0 0 0 0 0 0 0 0 0 0
0 0 0 0 0 0 0 0 0 0 0 0 0 0 0 0 0 0 0 0 0 0 0 0 0 0 0 0 0 -0 -0 -0 0 0 0 0 0 0 0 0 0 0 0
0 0 0 0 0 0 0 0 0 0 0 0 0 0 0 0 0 0 0 0 0 0 0 0 0 -0 -0 -0 -0 -0 -0 0 0 0 0 0 0 0 0 0 0 0 0
0 0 0 0 0 0 0 0 0 0 0 0 0 0 0 0 0 0 0 0 0 0 0 -0 -0 -0 -0 -0 -0 -0 0 0 0 0 0 0 0 0 0 0 0 0 0
0 0 0 0 0 0 0 0 0 0 0 0 0 0 0 0 0 0 0 0 -0 -0 -0 -0 -0 -0 -0 -0 -0 -0 -0 -0 -0 -0 0 0 0 0 0 0 0 0 0
0 0 0 0 0 0 0 0 0 0 0 0 0 0 0 0 0 -0 -0 -0 -0 -0 -0 -0 -0 -0 -0 -0 -0 -0 -0 -0 -0 -0 -0 -0 0 0 0 0 0 0 0
0 0 0 0 0 0 0 0 0 0 0 0 0 -0 -0 -0 -0 -0 -0 -0 -0 -0 -0 -0 -0 -0 -0 -0 -0 -0 0 -0 0 0 0 0 0 0 0 0 0 0 0
Wind_Speed_500mb
48 46 51 46 52 51 45 40 40 43 41 33 28 28 32 36 40 37 35 31 29 29 33 31 28 23 20 16 17 17 18 18 17 12 15 16 24 26 27 23 19 20 21
51 43 45 46 49 52 54 51 45 46 45 41 37 35 32 35 39 39 36 31 31 32 31 32 36 31 31 26 18 18 15 13 19 21 23 24 19 20 24 26 18 18 22
45 59 49 49 49 54 52 50 52 54 53 49 42 41 36 38 38 39 38 37 34 32 32 36 35 30 31 31 26 19 21 21 17 16 21 25 25 26 28 27 18 16 20
23 20 45 49 53 51 53 51 53 53 59 57 52 45 41 38 39 41 43 40 38 35 33 35 35 35 34 32 30 28 25 23 23 22 25 24 26 28 30 29 21 18 21
59 39 34 36 53 63 57 55 51 51 53 56 56 51 49 44 46 42 43 46 47 45 41 39 39 40 35 35 36 34 31 31 29 32 28 28 29 31 30 25 24 26 26
61 55 56 59 55 44 52 57 58 53 50 48 51 50 48 51 48 47 46 48 51 50 48 44 41 40 40 41 45 43 40 30 36 34 31 30 30 30 29 30 31 31 30
50 56 56 63 54 49 49 60 63 63 59 56 54 57 53 49 47 48 48 49 51 52 51 50 49 46 43 41 41 44 39 35 36 37 38 35 34 32 33 33 32 30 31
32 35 40 48 53 54 55 54 53 57 63 58 60 62 60 55 51 50 51 51 54 52 53 55 55 52 48 46 40 47 47 43 42 40 38 35 37 35 36 35 33 32 33
14 18 22 26 30 34 43 44 43 57 63 62 58 52 50 55 54 54 56 58 59 58 57 56 55 58 51 53 52 49 50 49 45 42 40 36 34 34 36 38 38 37 34
14 16 20 27 31 32 32 36 34 30 32 46 54 52 51 53 54 58 59 64 64 63 58 58 58 58 60 59 57 58 57 52 49 43 39 36 35 35 35 36 37 37 36
16 18 21 26 27 35 35 35 33 37 42 45 46 45 41 48 52 54 54 59 63 65 64 63 64 62 59 63 64 63 59 54 51 48 44 37 34 38 37 36 35 40 42
25 24 23 28 28 31 36 35 36 37 38 42 43 47 52 56 53 52 55 55 61 66 70 70 67 61 63 61 63 62 58 53 52 50 46 41 43 44 42 37 36 36 35
31 27 25 27 34 32 31 32 32 33 33 39 46 50 53 53 52 56 62 66 65 67 70 71 68 63 63 65 63 64 60 53 59 56 51 52 48 38 30 36 37 30 27
34 30 31 33 40 38 32 29 29 29 32 35 37 40 42 44 44 44 49 54 59 64 66 69 68 66 64 59 60 59 56 49 35 48 58 47 39 47 45 40 32 32 32
30 34 40 45 43 38 29 30 30 30 32 39 39 42 42 44 37 37 36 33 38 40 39 40 52 55 53 56 58 50 51 38 42 56 53 58 57 53 35 34 37 34 27
35 40 38 30 30 28 27 28 34 37 42 44 42 44 41 41 38 38 37 31 31 33 31 28 37 51 62 67 63 51 51 55 54 65 62 54 42 39 37 37 35 28 24
37 35 34 35 33 32 35 36 43 37 41 41 43 43 43 37 30 32 32 27 28 34 34 30 38 47 44 51 64 58 46 39 53 54 50 44 34 31 31 28 31 33 29
33 35 37 37 32 33 36 39 34 38 44 45 40 33 26 24 23 22 22 20 19 21 22 29 34 37 40 42 43 62 64 62 51 50 45 34 30 25 29 30 33 40 33
38 38 30 27 31 32 32 34 39 42 37 25 20 16 14 17 19 15 13 10 11 12 16 21 24 37 52 62 62 62 59 54 46 48 38 31 28 25 31 37 38 33 31
26 26 23 25 24 28 29 34 35 24 12 8 6 9 11 11 12 10 8 11 20 24 35 52 60 60 58 58 56 54 48 36 32 32 33 30 25 25 31 36 33 35 29
24 24 25 26 26 27 29 27 15 13 14 17 19 23 24 23 25 23 23 25 36 52 52 49 46 46 46 44 40 41 40 36 32 29 29 33 31 34 37 34 37 32 24
34 30 30 28 27 31 29 19 18 23 30 38 38 36 34 35 39 41 43 43 40 36 34 34 36 37 40 41 40 37 33 30 31 33 35 37 34 33 33 33 29 23 24
33 32 36 31 31 30 30 30 33 38 39 39 36 32 32 34 37 38 35 31 34 35 35 35 34 35 35 33 32 27 24 29 32 34 35 34 33 32 28 26 25 21 20
37 31 34 38 38 41 36 42 43 38 37 37 37 38 38 36 35 35 32 29 29 29 29 31 32 35 36 37 38 35 37 38 36 32 27 29 30 27 24 22 21 18 16
20 28 36 39 39 43 48 51 46 43 42 43 43 41 36 31 28 26 27 27 30 31 32 34 35 36 35 35 33 31 30 29 28 27 26 20 12 12 19 17 19 20 20
18 26 27 36 52 44 56 59 51 50 42 41 37 33 27 24 23 28 32 38 41 40 36 34 35 34 30 23 22 20 18 16 20 17 21 22 16 10 16 15 15 18 18
Wind_Direction_500mb
246 249 248 250 245 244 242 241 237 235 232 228 236 242 252 253 253 251 257 256 258 244 243 248 247 243 240 245 257 265 274 276 282 256 267 274 280 270 271 260 263 275 265
236 234 245 253 248 249 247 243 240 238 238 242 246 253 248 250 250 245 252 249 249 248 250 252 256 250 248 246 249 264 272 284 286 268 269 275 279 268 260 256 257 259 258
249 246 244 251 248 251 256 251 245 243 243 246 250 249 251 250 249 243 247 244 242 247 253 258 260 253 249 245 246 264 281 287 294 287 268 270 268 263 262 271 268 249 257
226 231 245 246 251 248 250 249 249 246 244 244 249 248 247 250 250 245 242 244 244 247 254 259 251 251 251 244 248 258 266 270 282 288 288 279 267 264 256 266 268 262 262
240 244 230 245 262 251 247 245 247 244 245 246 248 250 251 254 244 243 248 254 255 254 257 260 251 243 243 248 248 251 256 262 269 286 285 267 257 260 262 261 248 257 258
237 246 250 247 265 251 248 248 246 241 244 247 242 244 253 249 248 247 250 254 255 257 255 252 254 251 249 254 250 254 254 251 274 275 272 272 262 258 245 242 245 246 245
250 249 258 251 253 247 262 259 256 247 243 242 246 247 244 247 251 251 252 256 256 256 256 254 252 249 249 255 256 248 252 265 268 274 269 270 262 257 249 244 249 252 258
236 242 248 250 251 254 267 257 249 245 242 243 245 252 254 248 250 259 259 260 260 260 258 255 253 249 248 252 262 250 254 258 262 272 272 268 261 249 248 247 254 251 253
225 240 242 245 253 259 266 260 262 250 251 259 255 259 260 258 262 265 266 264 262 261 260 257 256 252 248 250 252 255 252 257 261 267 269 266 254 246 246 248 248 247 238
269 287 277 267 268 269 267 260 266 259 245 252 261 257 262 266 266 267 268 265 260 258 257 254 252 253 251 253 256 249 250 255 262 265 260 259 247 242 247 254 257 246 232
278 275 290 277 284 279 272 268 266 262 260 266 243 244 268 273 267 264 261 260 261 258 257 257 254 252 251 250 251 248 251 255 256 256 247 248 251 251 253 245 237 239 225
260 270 288 279 287 281 269 267 265 265 267 261 257 257 268 270 267 269 261 266 261 259 261 260 259 254 251 249 248 247 252 255 248 242 239 242 248 245 244 228 204 178 137
248 264 278 291 305 288 270 262 261 260 256 251 248 251 257 256 257 257 258 260 260 260 261 262 260 258 253 249 246 245 247 247 245 232 240 234 230 224 204 171 149 114 121
251 268 281 290 299 295 278 266 264 257 258 258 261 264 263 263 264 265 263 263 262 260 261 262 259 254 254 253 241 243 245 231 232 237 226 214 190 161 139 139 135 129 144
268 280 289 287 283 282 270 278 274 278 276 274 272 270 270 271 271 265 270 264 265 264 263 267 256 249 248 235 229 230 225 221 230 221 196 165 151 145 150 141 141 157 155
282 294 298 285 279 268 264 262 271 279 283 277 272 270 268 269 269 271 273 263 266 272 274 269 246 233 219 219 212 203 209 213 204 169 151 146 147 143 147 156 166 182 169
285 288 286 279 283 265 268 272 277 282 285 280 276 271 267 263 261 268 268 263 265 266 264 258 231 221 213 207 203 197 188 158 144 135 129 131 146 155 168 173 182 187 172
281 285 284 277 282 274 270 275 277 279 283 286 279 273 264 247 247 263 263 268 271 263 249 237 225 212 193 191 165 143 134 132 135 131 132 150 160 166 174 169 173 175 166
279 283 283 278 270 266 270 271 276 282 286 283 281 266 241 225 230 242 242 232 234 212 203 196 188 168 152 140 133 131 131 135 138 133 140 164 171 171 169 161 159 167 161
276 279 283 279 270 266 267 273 275 273 252 245 195 171 163 171 171 171 182 195 178 170 163 153 141 136 131 130 130 128 129 136 134 140 154 166 174 183 182 167 161 158 151
281 286 282 278 265 265 272 277 243 211 192 165 144 127 119 116 116 116 125 137 143 140 137 137 138 136 132 131 131 129 132 145 157 162 169 165 157 146 152 150 147 151 148
268 258 264 268 264 256 270 239 195 176 158 143 134 126 122 122 120 118 120 120 123 128 132 133 134 135 136 134 135 138 146 153 158 156 155 159 160 163 154 154 151 161 171
276 248 249 246 251 254 248 202 176 159 151 145 140 137 135 133 133 134 136 134 136 138 140 141 141 138 135 134 130 139 150 153 157 160 161 157 159 164 159 161 165 158 168
262 245 237 241 246 239 215 192 176 169 163 156 148 140 135 134 135 137 139 138 137 142 146 146 144 136 130 131 134 136 136 136 138 147 148 154 157 164 171 180 193 186 193
227 225 231 241 239 226 206 189 178 173 165 157 152 146 139 133 131 138 144 145 147 148 140 135 137 138 137 139 139 139 138 144 147 153 155 153 149 185 196 211 201 189 189
222 235 231 232 231 222 212 189 179 173 175 165 163 158 154 151 156 149 145 143 141 144 142 143 151 155 148 152 160 170 175 169 185 175 187 189 187 204 215 211 213 203 200
Wind_Speed_850mb
48 46 51 46 52 51 45 40 40 43 41 33 28 28 32 36 40 37 35 31 29 29 33 31 28 23 20 16 17 17 18 18 17 12 15 16 24 26 27 23 19 20 21
51 43 45 46 49 52 54 51 45 46 45 41 37 35 32 35 39 39 36 31 31 32 31 32 36 31 31 26 18 18 15 13 19 21 23 24 19 20 24 26 18 18 22
45 59 49 49 49 54 52 50 52 54 53 49 42 41 36 38 38 39 38 37 34 32 32 36 35 30 31 31 26 19 21 21 17 16 21 25 25 26 28 27 18 16 20
23 20 45 49 53 51 53 51 53 53 59 57 52 45 41 38 39 41 43 40 38 35 33 35 35 35 34 32 30 28 25 23 23 22 25 24 26 28 30 29 21 18 21
59 39 34 36 53 63 57 55 51 51 53 56 56 51 49 44 46 42 43 46 47 45 41 39 39 40 35 35 36 34 31 31 29 32 28 28 29 31 30 25 24 26 26
61 55 56 59 55 44 52 57 58 53 50 48 51 50 48 51 48 47 46 48 51 50 48 44 41 40 40 41 45 43 40 30 36 34 31 30 30 30 29 30 31 31 30
50 56 56 63 54 49 49 60 63 63 59 56 54 57 53 49 47 48 48 49 51 52 51 50 49 46 43 41 41 44 39 35 36 37 38 35 34 32 33 33 32 30 31
32 35 40 48 53 54 55 54 53 57 63 58 60 62 60 55 51 50 51 51 54 52 53 55 55 52 48 46 40 47 47 43 42 40 38 35 37 35 36 35 33 32 33
14 18 22 26 30 34 43 44 43 57 63 62 58 52 50 55 54 54 56 58 59 58 57 56 55 58 51 53 52 49 50 49 45 42 40 36 34 34 36 38 38 37 34
14 16 20 27 31 32 32 36 34 30 32 46 54 52 51 53 54 58 59 64 64 63 58 58 58 58 60 59 57 58 57 52 49 43 39 36 35 35 35 36 37 37 36
16 18 21 26 27 35 35 35 33 37 42 45 46 45 41 48 52 54 54 59 63 65 64 63 64 62 59 63 64 63 59 54 51 48 44 37 34 38 37 36 35 40 42
25 24 23 28 28 31 36 35 36 37 38 42 43 47 52 56 53 52 55 55 61 66 70 70 67 61 63 61 63 62 58 53 52 50 46 41 43 44 42 37 36 36 35
31 27 25 27 34 32 31 32 32 33 33 39 46 50 53 53 52 56 62 66 65 67 70 71 68 63 63 65 63 64 60 53 59 56 51 52 48 38 30 36 37 30 27
34 30 31 33 40 38 32 29 29 29 32 35 37 40 42 44 44 44 49 54 59 64 66 69 68 66 64 59 60 59 56 49 35 48 58 47 39 47 45 40 32 32 32
30 34 40 45 43 38 29 30 30 30 32 39 39 42 42 44 37 37 36 33 38 40 39 40 52 55 53 56 58 50 51 38 42 56 53 58 57 53 35 34 37 34 27
35 40 38 30 30 28 27 28 34 37 42 44 42 44 41 41 38 38 37 31 31 33 31 28 37 51 62 67 63 51 51 55 54 65 62 54 42 39 37 37 35 28 24
37 35 34 35 33 32 35 36 43 37 41 41 43 43 43 37 30 32 32 27 28 34 34 30 38 47 44 51 64 58 46 39 53 54 50 44 34 31 31 28 31 33 29
33 35 37 37 32 33 36 39 34 38 44 45 40 33 26 24 23 22 22 20 19 21 22 29 34 37 40 42 43 62 64 62 51 50 45 34 30 25 29 30 33 40 33
38 38 30 27 31 32 32 34 39 42 37 25 20 16 14 17 19 15 13 10 11 12 16 21 24 37 52 62 62 62 59 54 46 48 38 31 28 25 31 37 38 33 31
26 26 23 25 24 28 29 34 35 24 12 8 6 9 11 11 12 10 8 11 20 24 35 52 60 60 58 58 56 54 48 36 32 32 33 30 25 25 31 36 33 35 29
24 24 25 26 26 27 29 27 15 13 14 17 19 23 24 23 25 23 23 25 36 52 52 49 46 46 46 44 40 41 40 36 32 29 29 33 31 34 37 34 37 32 24
34 30 30 28 27 31 29 19 18 23 30 38 38 36 34 35 39 41 43 43 40 36 34 34 36 37 40 41 40 37 33 30 31 33 35 37 34 33 33 33 29 23 24
33 32 36 31 31 30 30 30 33 38 39 39 36 32 32 34 37 38 35 31 34 35 35 35 34 35 35 33 32 27 24 29 32 34 35 34 33 32 28 26 25 21 20
37 31 34 38 38 41 36 42 43 38 37 37 37 38 38 36 35 35 32 29 29 29 29 31 32 35 36 37 38 35 37 38 36 32 27 29 30 27 24 22 21 18 16
20 28 36 39 39 43 48 51 46 43 42 43 43 41 36 31 28 26 27 27 30 31 32 34 35 36 35 35 33 31 30 29 28 27 26 20 12 12 19 17 19 20 20
18 26 27 36 52 44 56 59 51 50 42 41 37 33 27 24 23 28 32 38 41 40 36 34 35 34 30 23 22 20 18 16 20 17 21 22 16 10 16 15 15 18 18
Wind_Direction_850mb
246 249 248 250 245 244 242 241 237 235 232 228 236 242 252 253 253 251 257 256 258 244 243 248 247 243 240 245 257 265 274 276 282 256 267 274 280 270 271 260 263 275 265
236 234 245 253 248 249 247 243 240 238 238 242 246 253 248 250 250 245 252 249 249 248 250 252 256 250 248 246 249 264 272 284 286 268 269 275 279 268 260 256 257 259 258
249 246 244 251 248 251 256 251 245 243 243 246 250 249 251 250 249 243 247 244 242 247 253 258 260 253 249 245 246 264 281 287 294 287 268 270 268 263 262 271 268 249 257
226 231 245 246 251 248 250 249 249 246 244 244 249 248 247 250 250 245 242 244 244 247 254 259 251 251 251 244 248 258 266 270 282 288 288 279 267 264 256 266 268 262 262
240 244 230 245 262 251 247 245 247 244 245 246 248 250 251 254 244 243 248 254 255 254 257 260 251 243 243 248 248 251 256 262 269 286 285 267 257 260 262 261 248 257 258
237 246 250 247 265 251 248 248 246 241 244 247 242 244 253 249 248 247 250 254 255 257 255 252 254 251 249 254 250 254 254 251 274 275 272 272 262 258 245 242 245 246 245
250 249 258 251 253 247 262 259 256 247 243 242 246 247 244 247 251 251 252 256 256 256 256 254 252 249 249 255 256 248 252 265 268 274 269 270 262 257 249 244 249 252 258
236 242 248 250 251 254 267 257 249 245 242 243 245 252 254 248 250 259 259 260 260 260 258 255 253 249 248 252 262 250 254 258 262 272 272 268 261 249 248 247 254 251 253
225 240 242 245 253 259 266 260 262 250 251 259 255 259 260 258 262 265 266 264 262 261 260 257 256 252 248 250 252 255 252 257 261 267 269 266 254 246 246 248 248 247 238
269 287 277 267 268 269 267 260 266 259 245 252 261 257 262 266 266 267 268 265 260 258 257 254 252 253 251 253 256 249 250 255 262 265 260 259 247 242 247 254 257 246 232
278 275 290 277 284 279 272 268 266 262 260 266 243 244 268 273 267 264 261 260 261 258 257 257 254 252 251 250 251 248 251 255 256 256 247 248 251 251 253 245 237 239 225
260 270 288 279 287 281 269 267 265 265 267 261 257 257 268 270 267 269 261 266 261 259 261 260 259 254 251 249 248 247 252 255 248 242 239 242 248 245 244 228 204 178 137
248 264 278 291 305 288 270 262 261 260 256 251 248 251 257 256 257 257 258 260 260 260 261 262 260 258 253 249 246 245 247 247 245 232 240 234 230 224 204 171 149 114 121
251 268 281 290 299 295 278 266 264 257 258 258 261 264 263 263 264 265 263 263 262 260 261 262 259 254 254 253 241 243 245 231 232 237 226 214 190 161 139 139 135 129 144
268 280 289 287 283 282 270 278 274 278 276 274 272 270 270 271 271 265 270 264 265 264 263 267 256 249 248 235 229 230 225 221 230 221 196 165 151 145 150 141 141 157 155
282 294 298 285 279 268 264 262 271 279 283 277 272 270 268 269 269 271 273 263 266 272 274 269 246 233 219 219 212 203 209 213 204 169 151 146 147 143 147 156 166 182 169
285 288 286 279 283 265 268 272 277 282 285 280 276 271 267 263 261 268 268 263 265 266 264 258 231 221 213 207 203 197 188 158 144 135 129 131 146 155 168 173 182 187 172
281 285 284 277 282 274 270 275 277 279 283 286 279 273 264 247 247 263 263 268 271 263 249 237 225 212 193 191 165 143 134 132 135 131 132 150 160 166 174 169 173 175 166
279 283 283 278 270 266 270 271 276 282 286 283 281 266 241 225 230 242 242 232 234 212 203 196 188 168 152 140 133 131 131 135 138 133 140 164 171 171 169 161 159 167 161
276 279 283 279 270 266 267 273 275 273 252 245 195 171 163 171 171 171 182 195 178 170 163 153 141 136 131 130 130 128 129 136 134 140 154 166 174 183 182 167 161 158 151
281 286 282 278 265 265 272 277 243 211 192 165 144 127 119 116 116 116 125 137 143 140 137 137 138 136 132 131 131 129 132 145 157 162 169 165 157 146 152 150 147 151 148
268 258 264 268 264 256 270 239 195 176 158 143 134 126 122 122 120 118 120 120 123 128 132 133 134 135 136 134 135 138 146 153 158 156 155 159 160 163 154 154 151 161 171
276 248 249 246 251 254 248 202 176 159 151 145 140 137 135 133 133 134 136 134 136 138 140 141 141 138 135 134 130 139 150 153 157 160 161 157 159 164 159 161 165 158 168
262 245 237 241 246 239 215 192 176 169 163 156 148 140 135 134 135 137 139 138 137 142 146 146 144 136 130 131 134 136 136 136 138 147 148 154 157 164 171 180 193 186 193
227 225 231 241 239 226 206 189 178 173 165 157 152 146 139 133 131 138 144 145 147 148 140 135 137 138 137 139 139 139 138 144 147 153 155 153 149 185 196 211 201 189 189
222 235 231 232 231 222 212 189 179 173 175 165 163 158 154 151 156 149 145 143 141 144 142 143 151 155 148 152 160 170 175 169 185 175 187 189 187 204 215 211 213 203 200